Oosterzele, Belgium
Current Conditions -  °F | °C
As of 6:45 AM on Sunday 23 Nov 2014 (Local Time) from EBCV Reporting Station
Clear Clear  
Wind Chill: 50°   Ceiling: Unl
Heat Index: 50°   Visibility: 6mi
Dew Point: 48°   Wind: 7mph
Humidity: 94%   Direction: 170°S
Pressure: 30"   Gusts: NA
Location:  50.95°N, 3.8°E
Report Text: EBCV 230545Z AUTO 17006KT 9999 NCD 10/09 Q1016 BLU
Loading
Personal Weather Stations






























Interactive Weather Map New forecast layout! Learn more

10-Day Weather Forecast

Advertisements
Track Severe Weather on mobile